[[{"header":{"parameterUnit":"m.s-1","parameterCategory":1,"la1":30.2991,"la2":30.254,"lo1":-89.0895,"lo2":-89.0444,"dy":0.0017,"dx":0.0017,"nx":28,"ny":28,"refTime":"2024-11-25T03:00:00:Z","depth":0,"parameterNumber":2,"parameterNumberName":"U-component_of_WINDS"},"data":[0,0,0,0,0,0,0,0,0,0,0,0,0,0,0,0,0,0,0,0,0,0,0,0,0,0,0,0,0,0,0,0,0,0,0,0,0,0,0,0,0,0,0,0,0,0,0,0,0,0,0,0,0,0,0,0,0,0,3.0334,3.0335,0,3.0443,3.0445,3.0446,3.0422,3.042,3.0418,3.0416,3.0531,3.0536,3.0541,0,0,0,0,0,0,0,0,0,0,0,0,0,3.0108,3.0112,3.0334,3.0335,3.0337,3.0443,3.0445,3.0446,3.0422,3.042,3.0417,3.0415,3.053,3.0535,3.0541,0,0,0,0,0,0,0,0,0,0,0,0,0,3.0211,3.0114,3.0334,3.0338,3.0339,3.0443,3.0445,3.0447,3.0423,3.042,3.0417,3.0414,3.0528,3.0535,3.0542,3.065,0,0,3.0565,3.0568,0,0,0,0,0,0,0,0,3.0205,3.0219,3.0336,3.0338,3.0339,3.0416,3.0407,3.0515,3.0424,3.0391,3.0416,3.0412,3.0496,3.0505,3.0533,3.0655,3.066,3.0566,3.057,3.0574,3.0576,0,0,0,0,0,0,0,3.0198,3.0214,3.0377,3.0337,3.034,3.0335,3.0346,3.0427,3.0459,3.0394,3.0392,3.0405,3.0496,3.0526,3.0535,3.0662,3.0566,3.0572,3.0577,3.058,3.0879,3.0882,0,0,0,0,0,0,3.0189,3.0208,3.0374,3.0381,3.0263,3.0341,3.0354,3.0394,3.0458,3.0465,3.0408,3.0404,3.0514,3.0527,3.0539,3.067,3.0573,3.058,3.0585,3.0875,3.088,3.0883,0,0,0,0,0,0,3.0184,3.0204,3.0369,3.0294,3.0315,3.0349,3.0394,3.0398,3.0428,3.0469,3.0475,3.0432,3.0512,3.0529,3.0622,3.0673,3.0584,3.0591,3.0871,3.0877,3.0881,3.0931,0,0,0,0,0,0,3.0177,3.0202,3.0242,3.0295,3.0319,3.045,3.0397,3.0403,3.044,3.0436,3.0493,3.05,3.0511,3.0611,3.063,3.0682,3.0596,3.0867,3.0874,3.088,3.0925,3.0937,3.0948,0,0,0,0,0,3.0169,3.0253,3.0245,3.0265,3.037,3.0453,3.0467,3.0477,3.0445,3.0486,3.0513,3.0498,3.0665,3.0621,3.0642,3.0697,3.0864,3.0872,3.0879,3.092,3.0935,3.0947,0,0,0,0,0,0,3.0206,3.026,3.0251,3.0354,3.0399,3.0449,3.0501,3.0492,3.0548,3.0542,3.0554,3.0567,3.0662,3.0689,3.064,3.0805,3.076,3.0772,3.0784,3.0798,3.0809,3.0801,3.0603,0,0,0,0,0,3.0226,3.0288,3.0332,3.0418,3.0441,3.0467,3.0504,3.0508,3.0555,3.0574,3.0608,3.0655,3.0718,3.076,3.082,3.0929,3.0941,3.0977,3.0988,3.0997,3.1008,3.1068,3.1084,3.0909,3.0909,3.0909,0,0,3.0268,3.0305,3.0343,3.0426,3.0462,3.0526,3.0483,3.0554,3.0602,3.0586,3.0675,3.0702,3.0756,3.0857,3.0904,3.0883,3.1059,3.1007,3.1014,3.102,3.1077,3.1094,3.1108,3.0914,3.0913,3.0912,0,0,3.0377,3.0411,3.0487,3.0523,3.0577,3.0594,3.0612,3.0663,3.068,3.077,3.0759,3.0818,3.0926,3.0965,3.0999,3.1123,3.1112,3.1143,3.1202,3.126,3.1274,3.1286,3.133,3.1346,3.1153,3.1153,3.1153,0,3.0423,3.0519,3.0527,3.0598,3.0635,3.0623,3.07,3.0735,3.0806,3.0832,3.0807,3.0943,3.0978,3.1089,3.1119,3.1147,3.1169,3.1136,3.1271,3.1283,3.1295,3.1337,3.1354,3.1156,3.1156,3.1156,3.1155,0,3.0572,3.0639,3.0694,3.0761,3.0805,3.0879,3.0899,3.0942,3.0943,3.0963,3.1056,3.1098,3.1166,3.1193,3.1195,3.1304,3.1289,3.1268,3.1223,3.1315,3.1355,3.1371,3.1161,3.116,3.1159,3.1158,0,0,3.0707,3.0779,3.0799,3.0829,3.0888,3.094,3.1014,3.108,3.1117,3.1166,3.1229,3.1321,3.1301,3.134,3.1346,3.1397,3.1493,3.1369,3.137,3.139,3.1616,3.1632,3.165,3.1486,3.1489,3.1492,3.1612,0,3.0822,3.095,3.096,3.1076,3.1138,3.1127,3.1192,3.1235,3.1256,3.1313,3.1336,3.1401,3.137,3.1393,3.1443,3.147,3.1538,3.1462,3.1545,3.1548,3.1531,3.1671,3.1688,3.1799,3.1627,3.163,3.1632,0,3.0972,3.1025,3.1147,3.1197,3.1223,3.1281,3.1342,3.1396,3.1445,3.1457,3.15,3.1499,3.1576,3.1529,3.1635,3.1583,3.1618,3.1637,3.1641,3.1649,3.1595,3.1683,3.1835,3.1852,3.1657,3.1655,3.1653,0,3.1057,3.116,3.1246,3.1273,3.1333,3.1374,3.1401,3.1447,3.1486,3.1541,3.1566,3.1629,3.1664,3.1713,3.173,3.1694,3.1836,3.179,3.1848,3.1848,3.1878,3.1876,3.2038,3.1901,3.1901,3.1901,3.19,0,3.1184,3.1259,3.1285,3.1338,3.1422,3.1434,3.1517,3.1542,3.1584,3.1642,3.1638,3.1693,3.1711,3.177,3.1784,3.187,3.1886,3.1898,3.1901,3.1899,3.1897,3.1921,3.1914,3.1905,3.1904,3.1903,3.1903,0,3.1293,3.1314,3.1407,3.1457,3.1471,3.1531,3.1574,3.1625,3.1645,3.1719,3.1738,3.177,3.1839,3.186,3.1944,3.1953,3.2054,3.205,3.2037,3.2037,3.2094,3.2088,3.2277,3.2302,3.2149,3.2151,3.2152,0,3.1372,3.1429,3.1485,3.1523,3.1552,3.1614,3.1653,3.1668,3.1709,3.177,3.1815,3.1883,3.1938,3.2049,3.208,3.2144,3.2142,3.2203,3.2151,3.2147,3.2143,3.2139,3.2145,3.2213,3.2215,3.2216,3.2217,0,3.151,3.1517,3.1574,3.1635,3.1682,3.1731,3.1778,3.181,3.1831,3.1879,3.1948,3.1991,3.2076,3.2144,3.2209,3.2239,3.2232,3.2233,3.225,3.2248,3.2238,3.2244,3.2063,3.2229,3.2228,3.2227,3.2226,3.2226,3.1606,3.1657,3.1703,3.1767,3.1804,3.1848,3.1899,3.1925,3.1983,3.2053,3.2058,3.2134,3.2183,3.2269,3.2302,3.2362,3.2345,3.2369,3.2375,3.2381,3.2386,3.2228,3.2374,3.2374,3.2374,3.2374,3.2373,0,3.1743,3.1773,3.1831,3.1897,3.1947,3.1936,3.1987,3.2031,3.2097,3.2143,3.2197,3.2277,3.2343,3.238,3.2446,3.2487,3.2486,3.2504,3.2501,3.2508,3.2398,3.2376,3.2504,3.2504,3.2504,3.2504,3.2504,3.2504,3.182,3.1905,3.1918,3.2021,3.2051,3.2124,3.2155,3.2196,3.2232,3.2322,3.2377,3.24,3.2442,3.2511,3.2572,3.2581,3.2606,3.2626,3.2633,3.2529,3.2516,3.2503,3.2483,3.2631,3.2631,3.2738,3.2739,3.274]},{"header":{"parameterUnit":"m.s-1","parameterCategory":1,"la1":30.2991,"la2":30.254,"lo1":-89.0895,"lo2":-89.0444,"dy":0.0017,"dx":0.0017,"nx":28,"ny":28,"refTime":"2024-11-25T03:00:00:Z","depth":0,"parameterNumber":3,"parameterNumberName":"V-component_of_WINDS"},"data":[0,0,0,0,0,0,0,0,0,0,0,0,0,0,0,0,0,0,0,0,0,0,0,0,0,0,0,0,0,0,0,0,0,0,0,0,0,0,0,0,0,0,0,0,0,0,0,0,0,0,0,0,0,0,0,0,0,0,3.0036,3.0038,0,3.0159,3.016,3.0162,3.0166,3.0165,3.0163,3.0162,3.0288,3.0293,3.0297,0,0,0,0,0,0,0,0,0,0,0,0,0,2.9808,2.9812,3.0036,3.0038,3.0039,3.0159,3.016,3.0162,3.0167,3.0165,3.0163,3.0161,3.0287,3.0292,3.0298,0,0,0,0,0,0,0,0,0,0,0,0,0,2.9916,2.9813,3.0036,3.0056,3.0059,3.0158,3.016,3.0162,3.0167,3.0165,3.0162,3.016,3.0285,3.0292,3.0299,3.0386,0,0,3.032,3.0323,0,0,0,0,0,0,0,0,2.991,2.9925,3.0051,3.0055,3.0058,3.0145,3.0126,3.0238,3.0167,3.0126,3.0162,3.0159,3.0242,3.0253,3.0281,3.0392,3.0398,3.0321,3.0325,3.0328,3.033,0,0,0,0,0,0,0,2.9903,2.9919,3.0085,3.0053,3.0058,3.0059,3.0072,3.0147,3.0195,3.0129,3.013,3.0144,3.0244,3.0274,3.0284,3.04,3.0321,3.0327,3.0331,3.0334,3.0591,3.0594,0,0,0,0,0,0,2.9891,2.9913,3.0081,3.0088,2.9977,3.0065,3.008,3.0119,3.0194,3.0203,3.0146,3.0144,3.0263,3.0275,3.0288,3.0397,3.0328,3.0335,3.0339,3.0589,3.0592,3.0594,0,0,0,0,0,0,2.9886,2.9906,3.0076,3.0001,3.0023,3.0071,3.0116,3.0123,3.0153,3.0207,3.0216,3.0168,3.0261,3.0278,3.0362,3.0401,3.0338,3.0344,3.0586,3.059,3.0593,3.0615,0,0,0,0,0,0,2.9879,2.9904,2.9938,3.0002,3.0027,3.0148,3.0118,3.0127,3.0165,3.0164,3.023,3.0238,3.0261,3.0352,3.0369,3.041,3.035,3.0582,3.0587,3.0592,3.0611,3.0619,3.0626,0,0,0,0,0,2.9871,2.9939,2.9939,2.9959,3.007,3.015,3.0164,3.0189,3.0168,3.0203,3.0238,3.0236,3.0394,3.036,3.038,3.0424,3.058,3.0586,3.0591,3.0607,3.0617,3.0626,0,0,0,0,0,0,2.9878,2.9947,2.9949,3.0039,3.0088,3.0151,3.0195,3.0198,3.0255,3.0251,3.0279,3.0294,3.0378,3.0409,3.037,3.0513,3.0485,3.0495,3.049,3.05,3.0507,3.0498,3.0356,0,0,0,0,0,2.989,2.9949,3.0006,3.008,3.0105,3.0146,3.0182,3.0196,3.0249,3.027,3.0311,3.0362,3.0423,3.0463,3.0522,3.0615,3.063,3.0655,3.0662,3.0668,3.0677,3.073,3.0742,3.0613,3.0613,3.0613,0,0,2.9915,2.996,2.9996,3.0083,3.0123,3.0184,3.0163,3.0229,3.0275,3.028,3.0362,3.0394,3.0453,3.0542,3.0584,3.0571,3.0716,3.0676,3.068,3.0686,3.0737,3.0749,3.076,3.0617,3.0617,3.0616,0,0,2.9993,3.0032,3.0099,3.014,3.0201,3.0227,3.0243,3.0305,3.0327,3.041,3.0415,3.047,3.0575,3.0617,3.0653,3.0747,3.0749,3.0766,3.0805,3.0856,3.0866,3.0876,3.0911,3.0923,3.0774,3.0774,3.0774,0,3.0016,3.0109,3.0133,3.0199,3.0237,3.0245,3.0313,3.0351,3.0429,3.0456,3.044,3.0572,3.0612,3.0712,3.0736,3.0763,3.0783,3.0759,3.0863,3.0872,3.0881,3.0915,3.0928,3.0776,3.0776,3.0775,3.0775,0,3.0135,3.0199,3.0246,3.0321,3.0364,3.0431,3.0466,3.0507,3.0518,3.0547,3.0632,3.068,3.075,3.0775,3.0786,3.0877,3.0867,3.0857,3.0829,3.0895,3.0927,3.094,3.0778,3.0778,3.0777,3.0777,0,0,3.0221,3.0308,3.0325,3.036,3.0428,3.0478,3.0546,3.0614,3.065,3.0703,3.0761,3.0849,3.0841,3.0881,3.0897,3.0941,3.1015,3.0926,3.0928,3.0942,3.112,3.1128,3.1142,3.1016,3.1018,3.102,3.1115,0,3.0307,3.0426,3.0451,3.0555,3.0615,3.0623,3.0682,3.0731,3.0759,3.0815,3.0846,3.0909,3.0892,3.0917,3.0961,3.0996,3.1051,3.099,3.1071,3.1074,3.1057,3.1159,3.1167,3.1254,3.1128,3.113,3.1131,0,3.0423,3.0479,3.0589,3.0651,3.0677,3.0729,3.0795,3.0847,3.0903,3.0921,3.0966,3.0977,3.1048,3.1016,3.1115,3.1073,3.1108,3.113,3.1134,3.1144,3.1107,3.1172,3.1282,3.1296,3.1151,3.115,3.1148,0,3.0475,3.0579,3.0658,3.0688,3.0761,3.0798,3.083,3.0884,3.0924,3.0981,3.1007,3.1071,3.1107,3.1157,3.1186,3.116,3.1283,3.1253,3.1301,3.13,3.1327,3.1325,3.1446,3.1348,3.1347,3.1347,3.1347,0,3.0569,3.0637,3.0683,3.0732,3.0808,3.0836,3.0911,3.0943,3.099,3.1046,3.1057,3.111,3.1144,3.1202,3.1224,3.1304,3.1319,3.1336,3.1342,3.1336,3.1334,3.136,3.1355,3.1351,3.135,3.1349,3.1349,0,3.0641,3.0675,3.0762,3.0825,3.0842,3.0896,3.095,3.0998,3.1027,3.1098,3.1116,3.1161,3.123,3.1263,3.1348,3.1363,3.1454,3.1455,3.1435,3.1437,3.1483,3.1479,3.1626,3.1647,3.1533,3.1534,3.1535,0,3.0699,3.0751,3.082,3.0858,3.0891,3.0953,3.0994,3.1023,3.1065,3.1133,3.1174,3.1243,3.13,3.1409,3.1449,3.1515,3.1518,3.1565,3.1528,3.1521,3.1521,3.1518,3.1524,3.1572,3.1573,3.1574,3.1575,0,3.08,3.0814,3.0872,3.0937,3.0986,3.1038,3.109,3.1121,3.1158,3.1206,3.1276,3.132,3.1407,3.1476,3.1544,3.1578,3.1583,3.1586,3.1601,3.1596,3.1583,3.1592,3.1454,3.1583,3.1582,3.1581,3.1581,3.158,3.0867,3.0915,3.097,3.1036,3.1078,3.1126,3.1175,3.121,3.1269,3.1342,3.1356,3.1431,3.1486,3.1579,3.1615,3.1674,3.1664,3.1685,3.169,3.1695,3.1698,3.1572,3.1687,3.1686,3.1686,3.1686,3.1686,0,3.0969,3.1006,3.1065,3.1137,3.1189,3.1189,3.1247,3.129,3.1356,3.1407,3.1463,3.1544,3.1611,3.1657,3.1726,3.1764,3.1769,3.1781,3.1779,3.1787,3.1703,3.1684,3.1777,3.1777,3.1777,3.1777,3.1777,3.1777,3.1028,3.1109,3.113,3.1231,3.1268,3.1341,3.1374,3.1419,3.146,3.1551,3.1607,3.1636,3.1686,3.1758,3.182,3.1832,3.1857,3.187,3.1882,3.1803,3.1793,3.1784,3.1767,3.1875,3.1875,3.1962,3.1963,3.1963]}]]